Weather History for KHND - March, 2013

Change the Weather History Date:

Monday, March 18, 2013

  Actual Average (KLAS) Record (KLAS)
Temperature  
Mean Temperature 60 °F 60 °F  
Max Temperature 73 °F 71 °F 88 °F (1972)
Min Temperature 48 °F 50 °F 30 °F (1954)
Degree Days  
Heating Degree Days 4 6  
Month to date heating degree days 128  
Since 1 July heating degree days 1819  
Cooling Degree Days 0 1  
Month to date cooling degree days 10  
Year to date cooling degree days 11  
Growing Degree Days 10 (Base 50)    
Moisture  
Dew Point 10 °F    
Average Humidity 13    
Maximum Humidity 22    
Minimum Humidity 7    
Precipitation  
Precipitation 0.00 in 0.01 in 0.06 in (1982)
Month to date precipitation 0.31  
Year to date precipitation 1.61  
Snow  
Snow 0.00 in 0.00 in 0.00 in (2014)
Month to date snowfall 0.0  
Since 1 July snowfall 0.3  
Snow Depth -    
Sea Level Pressure  
Sea Level Pressure 29.94 in    
Wind  
Wind Speed 6 mph (SE)    
Max Wind Speed 13 mph    
Max Gust Speed -    
Visibility 10 miles    
Events      
T = Trace of Precipitation, MM = Missing Value Source: NWS Daily Summary

Daily Weather History Graph

Daily Weather History Graph

Search for Another Location

Airport or City:

Trip Planner

Search our weather history database for the weather conditions in past years. The results will help you decide how hot, cold, wet, or windy it might be!

Date:

Astronomy

Mar. 18, 2013 Rise Set
Actual Time 6:46 AM PDT 6:50 PM PDT
Civil Twilight 6:21 AM PDT 7:16 PM PDT
Nautical Twilight 5:51 AM PDT 7:46 PM PDT
Astronomical Twilight 5:21 AM PDT 8:16 PM PDT
Moon 11:00 AM PDT (3/18) 12:43 AM PDT (3/18)
Length of Visible Light 12h 55m
Length of Day
12h 04m
Waxing Crescent, 41% of the Moon is Illuminated
Mar 18
Waxing Crescent
Mar 19
First Quarter
Mar 27
Full
Apr 2
Last Quarter
Apr 10
New

Hourly Weather History & Observations

Time (PDT) Temp. Dew Point Humidity Pressure Visibility Wind Dir Wind Speed Gust Speed Precip Events Conditions
12:56 AM 59.9 °F 10.0 °F 14% 29.86 in 10.0 mi South 6.9 mph - N/A   Clear
1:56 AM 57.9 °F 12.0 °F 16% 29.88 in 10.0 mi South 4.6 mph - N/A   Clear
2:56 AM 57.9 °F 13.1 °F 17% 29.89 in 10.0 mi SSE 3.5 mph - N/A   Clear
3:56 AM 56.8 °F 10.0 °F 16% 29.88 in 10.0 mi SSW 3.5 mph - N/A   Clear
4:56 AM 54.9 °F 13.1 °F 19% 29.90 in 10.0 mi SSE 6.9 mph - N/A   Clear
5:56 AM 55.9 °F 11.1 °F 17% 29.92 in 10.0 mi East 3.5 mph - N/A   Clear
6:56 AM 48.9 °F 10.0 °F 21% 29.96 in 10.0 mi SW 5.8 mph - N/A   Clear
7:56 AM 54.9 °F 16.2 °F 22% 29.99 in 10.0 mi SSE 5.8 mph - N/A   Clear
8:56 AM 63.9 °F 11.1 °F 13% 30.01 in 10.0 mi NE 8.1 mph - N/A   Clear
9:56 AM 66.9 °F 10.0 °F 11% 30.02 in 10.0 mi NE 12.7 mph - N/A   Clear
10:56 AM 70.0 °F 9.1 °F 9% 30.03 in 10.0 mi NE 10.4 mph - N/A   Clear
11:56 AM 70.9 °F 7.2 °F 8% 30.01 in 10.0 mi ENE 11.5 mph - N/A   Clear
12:56 PM 72.0 °F 7.2 °F 8% 30.00 in 10.0 mi Variable 3.5 mph - N/A   Clear
1:56 PM 73.9 °F 5.0 °F 7% 29.97 in 10.0 mi NNE 6.9 mph - N/A   Clear
2:56 PM 73.9 °F 6.1 °F 7% 29.94 in 10.0 mi NE 5.8 mph - N/A   Clear
3:56 PM 73.9 °F 7.2 °F 8% 29.92 in 10.0 mi Variable 3.5 mph - N/A   Clear
4:56 PM 73.9 °F 7.2 °F 8% 29.91 in 10.0 mi WNW 3.5 mph - N/A   Clear
5:56 PM 73.9 °F 9.1 °F 8% 29.90 in 10.0 mi Variable 3.5 mph - N/A   Clear
6:56 PM 72.0 °F 11.1 °F 10% 29.91 in 10.0 mi ENE 4.6 mph - N/A   Clear
7:56 PM 68.9 °F 11.1 °F 11% 29.91 in 10.0 mi North 5.8 mph - N/A   Clear
8:56 PM 64.9 °F 12.0 °F 13% 29.91 in 10.0 mi SSW 4.6 mph - N/A   Clear
9:56 PM 63.0 °F 16.2 °F 16% 29.92 in 10.0 mi SSE 6.9 mph - N/A   Clear
10:56 PM 63.9 °F 12.0 °F 13% 29.91 in 10.0 mi South 10.4 mph - N/A   Clear
11:56 PM 63.0 °F 11.1 °F 13% 29.90 in 10.0 mi South 9.2 mph - N/A   Clear